User: anonymous   Login
Location: Unspecified
(0.0000°N, 0.0000°E)
Time: 09:17:33
(UTC+00:00)
Language:

ANNA 1B - Orbit

View from above orbital plane
View from above orbital plane
View from above satellite
View from above satellite

Ground track
Ground track

The orbit data is extracted from the following two-line orbital elements,

1   446U 62060A   17086.82350726 -.00000121 +00000-0 +11405-4 0  9993
2   446 050.1420 288.9526 0070429 098.3030 353.0013 13.35257450653670
Epoch (UTC): 27 March 2017 19:45:51
Eccentricity: 0.0070429
inclination: 50.1420°
perigee height: 1074 km
apogee height: 1180 km
right ascension of ascending node: 288.9526°
argument of perigee: 98.3030°
revolutions per day: 13.35257450
mean anomaly at epoch: 353.0013°
orbit number at epoch: 65367

The dashed part of the orbit path shows where the satellite is in the earth's shadow,  

DLR